User: anonymous   Login
Location: Newark
(43.0000°N, 1.6781°W)
Time: 17:37:42
(UTC+00:00)
Language:

YUBILEINY - Orbit

View from above orbital plane
View from above orbital plane
View from above satellite
View from above satellite

Ground track
Ground track

The orbit data is extracted from the following two-line orbital elements,

1 32953U 08025A   22334.17249303  .00000024  00000-0  10000-3 0  9990
2 32953  82.5032  80.8743 0018690 257.3550 102.5432 12.43115574658925
Epoch (UTC): 30 November 2022 04:08:23
Eccentricity: 0.0018690
inclination: 82.5032°
perigee height: 1479 km
apogee height: 1508 km
right ascension of ascending node: 80.8743°
argument of perigee: 257.3550°
revolutions per day: 12.43115574
mean anomaly at epoch: 102.5432°
orbit number at epoch: 65892

The dashed part of the orbit path shows where the satellite is in the earth's shadow,  

DLR